Regional Weather Roundup
Issued by NWS

Home | Current Version | Previous Version | Graphics & Text | Print | Product List | Glossary On
Versions: 1 2 3 4 5 6 7 8 9 10 11 12 13 14 15 16 17 18 19 20 21 22 23 24 25 26 27 28 29 30 31 32 33 34 35 36 37 38 39 40 41 42 43 44 45 46 47 48 49 50
000
ASUS43 KOAX 191010
RWRNE

WEATHER ROUNDUP FOR NEBRASKA
NATIONAL WEATHER SERVICE OMAHA NE
400 AM CST THU JAN 19 2017

NOTES: SATELLITE DATA IS BEING USED TO AUGMENT CLOUD COVER ABOVE
       12000 FEET.
       "FAIR" INDICATES FEW OR NO CLOUDS BELOW 12,000 FEET WITH NO
       SIGNIFICANT WEATHER AND/OR OBSTRUCTIONS TO VISIBILITY.

  * THESE STATIONS DO NOT REPORT WEATHER SUCH AS RAIN...SNOW OR FOG.

NEZ001>004-019>022-054>056-191100-
NEBRASKA PANHANDLE

CITY           SKY/WX    TMP DP  RH WIND       PRES   REMARKS
SCOTTSBLUFF    CLOUDY    28  20  71 NW7       29.62F WCI  21
ALLIANCE       CLOUDY    16  12  84 S6        29.61F WCI   7
CHADRON        CLOUDY    26  17  68 W6        29.61F WCI  19
KIMBALL        CLOUDY    31  23  72 W10G16    29.62F WCI  22
SIDNEY         CLOUDY    28  20  71 W10       29.64F WCI  19
$$

NEZ057>060-069>072-079>082-191100-
SOUTHWEST NEBRASKA

CITY           SKY/WX    TMP DP  RH WIND       PRES   REMARKS
NORTH PLATTE   FOG       33  33 100 S5        29.67F VSB 1/4 WCI  29
IMPERIAL       CLOUDY    25  22  88 CALM      29.66S
LEXINGTON      FOG       39  37  95 S7        29.70S VSB 3/4 WCI  34
MCCOOK         FOG       34  34 100 SW6       29.69S VSB 1/4 WCI  29
OGALLALA       CLOUDY    22  20  93 SW3       29.65F
$$

NEZ005>010-023>029-035>040-094-191100-
NORTH CENTRAL NEBRASKA

CITY           SKY/WX    TMP DP  RH WIND       PRES   REMARKS
VALENTINE      CLOUDY    29  23  78 SW10      29.62F WCI  20
AINSWORTH      CLEAR     32  32 100 S8        29.63F WCI  25
BROKEN BOW     FOG       36  36 100 SW3       29.69R VSB 1/4
O`NEILL        CLEAR     36  36  99 S7        29.69F WCI  30
ORD            FOG       37  35  92 S8        29.70S VSB 1/2 WCI  31
THEDFORD       CLOUDY    32  31  96 S3        29.64F
$$

NEZ041-046>049-061>064-073>077-083>087-191100-
SOUTH CENTRAL NEBRASKA

CITY           SKY/WX    TMP DP  RH WIND       PRES   REMARKS
GRAND ISLAND   FOG       37  37 100 S13       29.74S VSB 1/2 WCI  29
AURORA         FOG       37  36  97 S12       29.74F VSB 3/4 WCI  29
HASTINGS       FOG       38  37  97 S9        29.74F VSB 1/4 WCI  31
HEBRON         CLOUDY    38  37  94 S10       29.78F FOG     WCI  32
HOLDREGE       FOG       38  37  97 SE7       29.71S VSB 1/2 WCI  32
KEARNEY *      CLOUDY    37  36  93 S14       29.72F VSB 1/4 WCI  29
YORK           CLEAR     36  34  93 S8        29.77F WCI  29
$$

NEZ011>018-030>034-042>045-191100-
NORTHEAST NEBRASKA

CITY           SKY/WX    TMP DP  RH WIND       PRES   REMARKS
NORFOLK        CLEAR     36  33  89 S13       29.73F WCI  27
ALBION         CLEAR     35  32  90 SE8       29.73F WCI  28
BLAIR          CLEAR     37  34  89 SE7       29.81F WCI  31
FREMONT        PTCLDY    35  33  92 SE5       29.81F WCI  31
TEKAMAH        CLEAR     34  32  92 S9        29.81F WCI  27
WAYNE          CLEAR     34  33  94 S8        29.76F WCI  28
$$

NEZ050>053-065>068-078-088>093-191100-
SOUTHEAST NEBRASKA

CITY           SKY/WX    TMP DP  RH WIND       PRES   REMARKS
LINCOLN        PTCLDY    35  33  92 S12       29.80F WCI  27
OMAHA EPPLEY   PTCLDY    33  29  85 SE5       29.83F WCI  29
BEATRICE       CLOUDY    39  36  89 SE5       29.80F
FALLS CITY     MOCLDY    36  35  96 SE6       29.84F FOG     WCI  31
NEBRASKA CITY  CLOUDY    36  36 100 S10       29.82F FOG     WCI  28
PLATTSMOUTH    MOCLDY    35  33  90 SE8       29.82F FOG     WCI  29
$$

NEZ044-045-051>053-067-191100-
OMAHA AREA

CITY           SKY/WX    TMP DP  RH WIND       PRES   REMARKS
OMAHA EPPLEY   PTCLDY    33  29  85 SE5       29.83F WCI  29
BLAIR          CLEAR     37  34  89 SE7       29.81F WCI  31
FREMONT        PTCLDY    35  33  92 SE5       29.81F WCI  31
MILLARD        CLEAR     35  32  92 SE6       29.82F WCI  29
OFFUTT AFB     PTCLDY    35  35 100 SE6       29.82F WCI  30
PLATTSMOUTH    MOCLDY    35  33  90 SE8       29.82F FOG     WCI  29
WAHOO          FAIR      33  32  95 E5        29.80F WCI  28
$$



USA.gov is the U.S. government's official web portal to all federal, state and local government web resources and services.